Voltar ao catálogo

STARLINK-34902

AtivoComunicaçõesVLEO
NORAD 65326·PAYLOAD·🇺🇸 United States

Lançado Aug 27, 2025 de Cape Canaveral Space Force Station

Loading…

Próximas Passagens (próximas 24 horas)

TLE

AtualizadoSource: CelesTrak SupGP

Época: Sep 15, 2026, 04:01 UTC

1 65326C 25189D   26258.16784722  .00016904  00000+0  49932-3 0  2584
2 65326  53.1599  44.4660 0001061  79.8629  54.3255 15.34388551    17

Acompanhe STARLINK-34902 em tempo real com AllMySat

Download on the App Store